Regional Weather Roundup
Issued by NWS Portland, ME

Home | Current Version | Previous Version | Text Only | Print | Product List | Glossary On
Versions: 1 2 3 4 5 6 7 8 9 10 11 12 13 14 15 16 17 18 19 20 21 22 23 24 25 26 27 28 29 30 31 32 33 34 35 36 37 38 39 40 41 42 43 44 45 46 47 48 49 50
000
ASUS41 KGYX 060010
RWRGYX
WEATHER ROUNDUP FOR MAINE AND NEW HAMPSHIRE
NATIONAL WEATHER SERVICE GRAY ME
700 PM EST THU MAR 05 2015

MEZ002-005-006-010-012-015-018-020-021-024-026-027-029-060100-
MAINE

CITY           SKY/WX    TMP DP  RH WIND       PRES   REMARKS
PORTLAND       CLOUDY    20  -2  38 N12       30.17R WCI   8
6HR MIN TEMP:  20; 6HR MAX TEMP:  25;

SANFORD        CLOUDY    18   0  45 NW9       30.18R
BAR HARBOR     CLOUDY    16  -6  38 NW7       30.14R
WISCASSET      CLOUDY    17  -7  34 VRB3      30.18R
6HR MIN TEMP:  17; 6HR MAX TEMP:  24;

ROCKLAND       CLOUDY    18  -8  32 NW6       30.16R
FRYEBURG       CLOUDY    15  -6  39 N3        30.17R
6HR MIN TEMP:  15; 6HR MAX TEMP:  21;

LEWISTONAUBURN CLOUDY    16  -8  35 N12       30.16R WCI   3
AUGUSTA        CLOUDY    15  -7  37 NW10      30.16R WCI   2
6HR MIN TEMP:  14; 6HR MAX TEMP:  19;

WATERVILLE     CLOUDY    16  -9  32 NW12      30.13R WCI   3
BANGOR         CLOUDY    14  -9  35 NW13      30.15R WCI   0
6HR MIN TEMP:  14; 6HR MAX TEMP:  18;

GREENVILLE       N/A      5 -11  47 NW12      30.03R WCI -11
6HR MIN TEMP:   5; 6HR MAX TEMP:   9;

MILLINOCKET    MOCLDY    13 -11  33 NW12      30.13R WCI  -1
6HR MIN TEMP:  13; 6HR MAX TEMP:  17;

HOULTON        CLOUDY    10 -14  32 N7        30.08R
6HR MIN TEMP:  10; 6HR MAX TEMP:  16;

PRESQUE ISLE   PTCLDY     7 -15  36 NW7       30.11R
6HR MIN TEMP:   7; 6HR MAX TEMP:  12;

FRENCHVILLE    FAIR       1 -15  47 NW10      30.07R WCI -15
6HR MIN TEMP:   1; 6HR MAX TEMP:   5;

CARIBOU        PTCLDY     1 -15  47 NW9       30.09R
6HR MIN TEMP:   0; 6HR MAX TEMP:  11;

$$

NHZ002-005-008-009-011-012-014-060100-
NEW HAMPSHIRE

CITY           SKY/WX    TMP DP  RH WIND       PRES   REMARKS
PORTSMOUTH     MOCLDY    20   1  43 W13       30.18R WCI   7
ROCHESTER      CLOUDY    17  -1  45 NW14      30.17R WCI   3
6HR MIN TEMP:  17; 6HR MAX TEMP:  22;

NASHUA         CLOUDY    20  -3  36 N12       30.21R WCI   8
MANCHESTER     CLOUDY    19  -2  39 NW14G22   30.19R WCI   6
6HR MIN TEMP:  19; 6HR MAX TEMP:  24;

CONCORD        CLOUDY    17  -5  37 NW10      30.21R WCI   5
6HR MIN TEMP:  17; 6HR MAX TEMP:  22;

LACONIA        CLOUDY    16  -8  35 W9        30.16R
PLYMOUTH       FAIR      14  -3  47 NW12      30.20R WCI   1
BERLIN         CLOUDY     8 -10  43 NW7       30.14R
6HR MIN TEMP:   8; 6HR MAX TEMP:  14;

WHITEFIELD     CLOUDY     8 -10  43 NW6       30.17R
6HR MIN TEMP:   8; 6HR MAX TEMP:  13;

JAFFREY        CLOUDY    16  -1  47 NW6       30.14R
6HR MIN TEMP:  16; 6HR MAX TEMP:  21;

KEENE          CLOUDY    18   0  45 NW7       30.21R
LEBANON        CLOUDY    14  -6  40 N9        30.21R
6HR MIN TEMP:  14; 6HR MAX TEMP:  19;

MT WASHINGTON  MOCLDY   -11 -29  40 NW37        N/A  WCI -43
6HR MIN TEMP: -12; 6HR MAX TEMP:  -9;

$$

VTZ005-007-008-060100-
VERMONT

CITY           SKY/WX    TMP DP  RH WIND       PRES   REMARKS
ST JOHNSBURY     N/A     10  -6  48 MISG      30.21R
MONTPELIER     PTCLDY     5  -8  55 NW5       30.22R
BURLINGTON     PTCLDY    10  -8  44 NE6       30.29R
$$

MAZ007-012-024-CTZ003-RIZ002-NYZ038-NYZ072-060100-
SOUTHERN NEW ENGLAND AND NY

CITY           SKY/WX    TMP DP  RH WIND       PRES   REMARKS
BOSTON         CLOUDY    23   1  38 NW15      30.21R WCI  10
WORCESTER      CLOUDY    20   0  41 N9        30.13R
NANTUCKET      LGT SNOW  24  20  84 N16       30.13S VSB 1   WCI  11
PROVIDENCE     CLOUDY    23  17  78 W5        30.20R
HARTFORD       CLOUDY    24   6  46 NW9       30.20R
ALBANY         CLOUDY    18   0  45 W18G25    30.28R WCI   2
NEW YORK CITY  FLURRIES  23  14  68 N8        30.25R
$$

ANZ081-ANZ082-ANZ150-NHZ014-MEZ023>029-060100-
COASTAL MARINE OBSERVATIONS

STATION/POSITION TIME  TEMP    WIND        PRES    WAVE
                       AIR SEA DIR/SP/G            HT/PER
                 (UTC) (F)     (DEG/KT/KT) (MB)    (FT/S)
MOUNT DESERT ROC 0000   18                 1019.8R
MATINICUS ROCK   0000   18     340/ 21/ 23 1020.7R
WELLS            2300   21     320/  8/ 10 1020.1R
ISLE OF SHOALS   0000   22     320/ 17/ 20 1021.2R
JEFFREYS LEDGE   2321      39                N/A     4/11
CASHES LEDGE BUO 2350   23 42              1019.6R   5/ 5
$$

.............KEY..............
   WCI - WIND CHILL
   TC  - TEMPERATURE IN CELSIUS
   VSB - VISIBILITY IN MILES
   HX  - HEAT INDEX
   FAIR- INDICATES FEW OR NO CLOUDS BELOW 12,000 FT, WITH NO
         SIGNIFICANT WEATHER AND/OR OBSTRUCTIONS TO VISIBILITY.




USA.gov is the U.S. government's official web portal to all federal, state and local government web resources and services.